Location: Mahannah Oil Field
(37.4664°N, 96.6003°W)
Time: 07:46:29
(UTC+00:00)

Courier 1B - Pass Details

Date: 22 January 2021
Orbit: 962 x 1209 km, 28.3° (Epoch: 02 March)

Event Time Altitude Azimuth Distance (km) Brightness Sun altitude
Rises 05:56:44 0° 226° (SW) 3,710 - -70.0°
Reaches altitude 10° 05:59:58 10° 213° (SSW) 2,731 - -70.3°
Maximum altitude 06:05:01 24° 162° (SSE) 1,896 - -70.8°
Drops below altitude 10° 06:09:59 10° 111° (ESE) 2,686 - -71.1°
Sets 06:13:08 0° 98° (E) 3,635 - -71.3°
